Theta_e
315 315 315 315 315 315 314 313 315 315 315 316 313 312 313 308 305 310 310 307 308 315 319 322 327 325 336 338 344 348 357 360 363 364 360 354 354 354 351 347 346 345 345 344 346
314 315 314 315 314 315 315 315 315 315 315 314 315 312 310 312 312 314 308 307 309 323 320 328 324 319 317 323 337 352 355 357 352 356 357 353 353 354 350 350 349 347 345 346 346
314 314 314 313 314 314 314 315 315 314 315 313 314 313 309 311 312 305 319 308 315 328 324 322 322 318 321 324 333 351 355 353 355 355 351 355 354 351 352 351 346 349 348 346 346
314 314 314 314 314 314 314 313 314 314 314 314 314 313 309 313 308 321 321 309 312 326 322 318 318 321 324 328 336 352 351 352 352 356 357 356 351 352 353 351 344 346 346 346 345
314 314 313 313 313 313 313 314 313 314 314 314 314 312 315 314 308 308 316 315 312 324 316 313 319 322 327 328 346 349 352 354 355 356 355 353 353 351 352 349 343 346 345 345 344
315 314 313 313 313 313 313 313 313 314 313 314 314 314 314 307 310 317 322 311 314 321 315 314 318 324 329 331 343 344 351 355 355 355 353 354 353 350 349 350 345 347 346 345 344
314 314 314 313 312 312 312 312 312 312 312 313 314 316 316 307 321 326 319 313 316 315 313 315 319 326 332 333 329 341 353 355 356 353 355 352 355 357 352 348 346 348 346 345 344
313 313 312 312 312 310 309 309 310 312 313 313 314 316 307 310 313 324 318 319 316 315 315 316 318 327 333 331 321 338 351 361 357 355 354 351 360 356 352 351 349 349 347 346 345
314 313 312 311 311 310 312 311 314 314 314 314 314 315 308 314 314 317 318 317 315 316 315 314 320 325 326 321 321 320 347 356 361 355 355 354 356 352 351 352 349 348 347 346 346
313 313 311 310 310 310 316 312 317 317 316 316 316 315 315 318 318 316 315 317 313 311 313 316 318 320 315 318 327 325 326 352 361 358 358 358 356 354 352 352 351 348 347 347 346
312 312 313 313 311 309 310 315 313 314 317 311 311 314 315 318 318 316 314 318 313 312 314 317 322 325 319 320 320 322 354 361 360 353 355 354 352 354 353 352 353 346 343 346 346
312 312 313 313 313 311 310 310 315 316 316 315 315 313 315 317 317 315 318 319 316 316 318 319 323 322 321 319 321 333 355 359 357 355 350 352 355 355 353 353 353 353 339 344 344
312 312 312 312 312 313 312 313 315 317 314 314 316 315 315 316 317 316 317 316 317 320 321 324 324 319 320 320 320 320 348 356 356 356 352 353 357 357 354 352 352 352 339 343 346
312 312 312 312 312 312 311 314 315 313 312 318 317 318 315 314 318 317 319 319 319 320 320 322 322 321 321 322 320 321 322 353 356 350 356 350 358 358 356 355 353 352 341 344 345
312 313 314 312 313 312 313 315 315 310 322 321 320 317 314 316 318 319 319 319 319 320 320 323 321 322 323 322 319 321 321 350 350 351 351 358 350 346 356 358 355 353 345 344 344
312 314 314 312 313 316 316 317 311 315 324 322 320 320 316 317 320 320 320 318 317 319 319 320 319 319 320 320 320 329 342 341 340 344 351 351 351 353 359 356 354 350 349 344 344
314 315 315 312 314 315 316 312 317 321 320 320 321 319 318 316 320 322 320 320 319 320 320 320 321 320 318 319 318 323 336 346 349 350 349 341 352 344 348 352 352 350 348 342 344
315 316 315 313 314 315 315 314 322 325 323 320 320 317 317 316 318 320 320 320 318 317 316 320 322 320 318 319 319 322 329 340 348 349 347 345 352 343 347 345 348 347 348 341 344
316 317 317 316 319 317 309 315 319 320 322 321 317 319 319 320 319 320 319 319 319 316 320 319 321 321 318 317 318 320 327 324 330 324 344 345 346 344 349 351 350 352 350 347 344
317 317 317 319 318 315 313 317 317 318 321 319 319 319 321 322 322 320 319 318 319 317 316 318 320 321 323 321 323 320 318 325 321 330 339 348 351 350 354 353 354 354 354 351 346
315 314 318 318 316 311 316 315 318 318 319 319 317 319 321 323 322 320 319 318 317 319 316 317 319 322 321 320 324 326 326 320 321 326 344 349 348 352 353 349 354 353 353 351 348
311 316 318 316 314 310 315 318 317 315 313 315 316 319 321 321 322 322 318 318 315 318 322 318 315 321 323 320 318 322 325 322 326 337 336 340 348 352 353 354 349 349 349 347 346
312 314 316 317 314 312 314 316 315 314 314 314 315 315 316 319 323 323 320 318 318 317 318 317 317 321 322 317 317 317 317 319 320 329 339 341 347 351 350 350 349 348 347 345 343
310 311 308 304 304 312 313 313 314 314 315 315 316 314 316 318 317 323 322 321 320 325 324 319 315 319 321 320 318 321 321 317 317 322 331 338 351 355 351 351 349 348 346 345 345
309 311 310 312 311 309 311 313 314 313 312 314 317 315 317 319 318 319 317 319 320 321 317 317 320 319 319 318 318 318 322 327 320 322 331 337 350 350 349 347 346 344 343 342 340
316 316 312 311 306 311 308 314 314 315 314 315 317 315 314 318 319 320 316 314 318 316 319 316 322 322 324 321 318 319 328 322 341 338 343 345 350 346 343 338 341 340 338 336 334
317 316 313 310 309 311 311 315 316 314 314 314 316 316 315 315 313 313 313 311 312 312 314 318 319 321 325 321 321 324 327 321 338 340 344 347 345 342 339 338 335 331 331 330 329
Wind_Speed
12 13 13 12 12 11 11 11 11 11 11 11 12 12 11 12 11 7 7 10 15 11 14 14 10 5 5 1 2 2 1 3 3 3 8 5 2 3 2 7 2 3 12 17 24
13 13 13 13 12 12 12 12 11 11 11 12 12 12 11 12 11 12 16 13 15 17 21 20 6 7 2 3 3 3 1 1 4 4 9 10 4 3 4 8 11 16 20 26 25
13 13 13 12 12 12 11 12 12 11 11 11 11 11 9 9 3 7 3 20 22 22 20 19 16 5 2 3 3 4 2 4 4 13 7 6 6 4 8 4 16 22 20 20 22
14 13 13 13 13 12 12 11 12 12 11 11 10 10 5 3 1 1 4 22 23 22 17 12 5 6 4 4 4 3 4 2 0 13 13 8 6 3 5 3 14 22 22 19 15
15 13 13 13 13 13 12 12 12 11 11 10 10 6 1 1 8 5 8 20 25 23 13 6 6 5 4 3 5 3 5 5 2 13 18 12 7 9 3 8 13 19 19 16 13
15 14 14 13 12 12 12 12 12 12 10 9 7 3 1 3 7 10 3 30 27 25 8 7 7 5 3 2 4 5 5 8 7 12 12 15 7 2 4 9 17 17 16 14 14
16 15 13 13 11 11 11 11 10 10 9 7 4 2 1 10 4 3 19 22 26 23 5 6 2 2 1 1 3 3 6 6 7 11 9 14 9 7 6 14 18 17 15 14 15
15 15 13 12 10 9 9 7 9 7 6 3 2 2 6 2 2 7 10 8 17 14 6 13 1 1 1 3 4 4 5 4 7 12 8 2 4 6 5 12 16 16 14 14 15
16 15 14 12 11 8 6 4 4 1 1 4 2 1 8 3 4 13 12 7 11 11 5 3 3 1 1 3 4 5 3 4 6 11 7 3 4 4 2 3 16 15 14 15 12
18 16 14 12 9 6 4 2 5 8 5 3 3 2 6 2 3 9 16 12 5 4 1 3 3 2 3 3 5 2 2 2 6 11 8 2 6 7 7 3 8 14 13 14 12
20 16 14 14 12 8 1 4 2 1 4 7 5 4 5 6 3 5 14 7 5 2 5 3 4 6 5 5 5 3 4 8 5 2 5 2 5 4 8 7 5 6 12 13 14
23 19 15 14 15 12 1 2 3 1 7 9 7 6 11 2 3 4 21 6 5 4 3 5 6 7 6 4 5 5 5 5 5 2 4 4 5 7 12 11 4 6 8 14 8
24 21 18 16 14 3 2 5 1 4 0 6 5 4 4 10 6 6 8 5 6 5 4 6 3 10 5 5 5 2 6 4 6 5 6 8 4 4 7 8 6 5 7 10 15
25 25 19 12 5 3 6 3 12 4 4 6 3 2 4 3 2 6 12 7 3 7 7 3 3 8 6 4 5 4 7 10 14 5 4 2 3 4 10 13 10 7 7 10 13
27 26 18 8 7 3 2 10 3 4 4 11 5 1 3 4 5 4 9 4 5 6 6 5 6 5 4 6 6 6 7 15 11 5 4 6 2 3 10 12 13 8 8 14 15
30 26 17 4 6 5 7 10 5 5 3 7 5 5 3 2 1 3 4 4 4 5 3 5 1 5 8 5 10 5 9 9 5 3 2 8 5 4 11 21 21 19 16 14 16
29 23 10 5 3 5 13 3 5 4 5 7 3 4 2 1 2 3 5 3 4 5 3 4 4 4 4 4 2 4 5 2 3 1 5 4 4 6 9 10 25 29 21 15 16
23 16 6 8 4 6 3 5 7 3 4 3 4 3 2 1 2 2 6 3 3 5 3 5 5 7 4 8 7 8 8 5 5 5 3 3 5 4 6 6 11 11 17 10 13
18 5 5 6 3 4 5 5 4 3 4 7 6 5 6 5 3 2 2 7 4 7 6 5 5 3 5 5 9 5 4 5 7 3 3 2 3 4 7 5 11 12 14 11 13
9 4 5 4 5 3 5 2 3 4 4 3 3 1 6 7 5 3 2 1 0 5 3 3 2 2 2 4 3 5 6 3 3 5 3 2 2 3 3 3 7 13 11 9 9
4 3 11 5 5 5 4 3 4 4 4 1 3 3 1 3 1 3 1 2 1 1 5 4 3 5 1 1 7 2 1 6 5 3 5 4 4 2 4 5 8 8 9 9 10
2 3 3 8 4 1 2 3 3 4 6 3 0 2 3 3 7 1 2 2 6 2 3 1 4 3 2 2 2 1 4 5 5 3 1 3 2 2 5 7 10 9 8 7 6
3 1 3 3 3 3 5 2 2 6 5 6 5 5 4 3 4 2 4 4 9 1 4 4 2 2 5 6 5 6 3 4 5 4 4 5 3 5 7 7 9 10 9 8 7
3 3 4 4 1 4 1 3 2 3 3 2 4 1 4 6 4 2 5 3 5 4 6 5 3 4 6 4 3 3 5 3 5 4 5 3 10 10 10 9 11 10 10 9 9
4 0 2 1 4 2 2 2 4 6 4 7 6 6 1 5 5 6 4 5 5 11 4 4 3 3 4 3 5 5 7 6 1 5 6 8 12 15 13 13 11 11 12 12 11
3 2 3 1 2 3 4 3 2 3 6 5 3 4 6 4 2 2 6 5 2 5 4 6 4 4 5 6 7 5 11 9 5 3 5 11 5 7 10 10 10 9 10 11 11
3 2 3 3 2 3 2 2 1 2 1 2 2 2 4 2 3 2 1 1 3 4 4 4 6 2 3 7 3 4 7 4 3 1 6 7 8 15 14 13 11 8 9 10 11
Wind_Direction
335 333 331 330 328 326 325 326 326 326 325 323 321 322 324 320 311 278 236 225 213 188 170 165 167 156 168 176 163 108 73 326 24 100 121 142 44 26 48 142 94 85 126 127 135
333 330 326 324 323 322 320 318 319 319 321 320 320 319 320 331 314 253 248 216 186 179 173 158 157 147 140 187 183 135 132 331 18 110 167 146 95 322 144 98 98 92 105 126 136
333 329 325 322 320 318 316 314 314 314 316 315 318 321 326 331 313 248 34 193 172 170 173 165 153 144 154 153 192 164 155 209 88 108 158 163 139 235 132 103 152 139 139 141 146
330 328 324 321 318 315 313 310 309 309 312 312 316 321 337 330 210 3 340 170 174 165 160 140 126 133 145 182 174 149 165 176 309 148 167 164 122 92 357 78 143 138 141 147 153
329 326 324 320 316 310 307 306 303 303 306 309 314 329 49 326 253 317 313 173 171 173 170 141 133 131 178 199 131 208 177 135 81 134 154 141 128 164 172 93 134 137 145 155 159
330 328 323 322 320 316 308 302 300 300 301 302 309 337 152 248 320 311 204 161 171 177 175 157 162 174 142 222 191 191 149 138 144 134 143 137 130 101 208 140 147 150 153 159 163
329 328 327 324 324 321 312 307 300 298 299 298 287 116 9 239 26 69 153 168 170 178 142 202 136 183 133 206 277 169 117 131 149 143 136 124 148 208 130 155 159 159 163 162 173
337 332 327 328 328 332 331 335 308 302 300 284 205 162 245 269 338 148 136 140 184 166 108 208 214 11 220 290 6 114 102 152 162 156 159 6 160 165 104 152 167 166 169 168 178
339 341 335 338 342 13 30 17 22 329 186 149 138 199 271 267 235 199 184 144 154 197 232 31 147 183 342 99 15 14 170 178 157 176 132 43 83 267 120 166 169 173 172 178 180
351 347 349 339 352 18 40 104 82 90 113 147 278 313 268 279 189 172 189 146 133 130 97 121 67 97 49 88 181 194 125 141 126 181 141 86 53 169 175 216 151 176 177 178 175
356 346 349 338 337 335 28 125 30 20 191 214 204 264 288 320 255 162 156 147 97 120 143 185 107 204 187 196 142 126 78 102 81 10 87 357 359 169 178 230 190 156 181 179 184
352 354 340 334 324 334 165 153 220 133 310 232 253 268 269 280 299 99 145 124 132 195 144 75 217 198 198 151 123 105 97 78 72 31 67 123 323 160 180 207 203 162 181 183 152
345 348 341 331 329 10 249 244 74 268 128 297 194 199 224 155 195 185 134 124 142 146 206 153 213 151 158 151 134 141 141 168 139 125 45 115 6 127 184 216 235 211 188 185 160
340 338 331 324 320 304 258 176 326 199 52 308 315 278 142 209 198 182 165 144 155 165 152 185 242 135 139 157 134 183 189 153 142 114 150 164 204 233 191 216 229 230 181 181 176
339 336 328 300 291 226 144 333 35 130 50 316 315 177 125 175 150 212 166 90 170 150 111 234 159 154 143 181 173 223 167 159 161 101 106 190 146 231 166 207 227 241 193 187 182
339 331 325 291 248 261 322 331 125 40 25 335 343 352 43 13 55 111 107 59 145 115 44 211 185 144 198 180 176 122 88 50 61 74 309 192 187 226 189 202 199 202 225 190 187
337 326 306 215 256 332 335 56 33 81 330 324 329 3 336 345 59 118 124 95 130 90 21 331 254 212 155 137 89 79 77 71 49 85 219 239 130 240 225 206 195 198 205 194 190
334 326 315 253 267 333 2 55 63 278 286 307 320 333 69 221 215 96 113 124 68 84 123 157 293 170 185 170 177 183 162 151 156 189 218 102 214 260 301 217 205 200 207 180 183
336 334 327 345 317 172 70 57 191 211 271 326 326 34 348 356 88 84 69 165 200 176 174 153 268 265 196 151 142 189 169 184 104 26 99 231 298 298 17 66 156 150 161 164 172
340 349 20 23 99 50 71 194 221 216 305 5 28 35 39 347 37 71 32 273 171 190 141 217 294 258 269 119 46 161 163 99 16 138 182 296 281 251 3 56 126 145 139 128 135
355 49 357 143 345 47 106 231 281 241 218 263 341 0 88 54 28 17 359 256 204 79 131 139 109 290 117 150 169 117 105 51 108 101 150 156 252 217 231 161 140 131 133 139 137
55 57 349 351 40 38 114 206 303 333 34 306 150 61 42 1 40 8 71 317 356 205 108 130 143 222 161 305 266 73 144 134 123 221 40 130 244 343 95 118 137 142 136 108 96
85 199 63 0 75 338 298 9 35 19 16 357 357 36 32 39 98 351 351 339 22 65 155 168 18 45 3 355 8 49 22 101 101 93 202 138 216 138 117 117 145 147 134 122 125
88 50 343 55 84 141 152 3 8 13 70 46 355 14 51 25 15 131 337 341 360 15 53 108 81 145 174 192 188 13 2 95 104 117 168 205 148 157 144 133 134 134 129 119 118
33 230 191 281 352 71 67 41 20 4 360 24 27 21 327 29 15 18 359 312 10 358 29 81 80 45 38 238 100 73 23 343 300 167 149 185 172 173 154 150 142 139 133 128 123
104 114 22 77 321 48 358 8 52 350 23 350 63 15 29 89 103 353 21 14 19 317 56 352 29 333 3 358 112 75 19 11 55 86 50 114 109 139 139 127 136 133 127 121 116
42 86 112 308 43 78 263 171 237 127 342 43 328 17 36 355 251 249 244 287 15 6 45 103 130 249 290 337 321 16 351 338 320 253 163 155 178 146 146 148 142 141 135 129 122